When you browse on this site, cookies collect data to enhance your experience and personalize the content and advertising you see.
Visit our Privacy Policy to learn more. By continuing to use the site, you agree to this use of cookies and data.

Stündliche Wetter Chapulhuacán

Heute, 12 Juli, Sonntag

Zeit Temperatur Niederschläge Wind Luftdruck Luftfeuchtigkeit
00:00 +20°C° 0 mm 1 m/S 679 mmHg 94%
01:00 +20°C° 0 mm 1 m/S 678 mmHg 94%
02:00 +20°C° 0 mm 1 m/S 678 mmHg 94%
03:00 +20°C° 0 mm 1 m/S 678 mmHg 94%
04:00 +20°C° 0 mm 1 m/S 678 mmHg 93%
05:00 +19°C° 0 mm 1 m/S 678 mmHg 93%
06:00 +22°C° 0 mm 1 m/S 678 mmHg 84%
07:00 +22°C° 0 mm 0 m/S 679 mmHg 76%
08:00 +24°C° 0 mm 0 m/S 679 mmHg 67%
09:00 +28°C° 0 mm 1 m/S 679 mmHg 61%
10:00 +29°C° 0 mm 2 m/S 679 mmHg 55%
11:00 +30°C° 0 mm 2 m/S 679 mmHg 49%
12:00 +31°C° 0 mm 2 m/S 679 mmHg 49%
13:00 +31°C° 0 mm 2 m/S 678 mmHg 49%
14:00 +31°C° 0 mm 2 m/S 678 mmHg 49%
15:00 +30°C° 0 mm 2 m/S 678 mmHg 51%
16:00 +29°C° 0 mm 2 m/S 677 mmHg 54%
17:00 +28°C° 0 mm 2 m/S 677 mmHg 57%
18:00 +26°C° 0 mm 1 m/S 678 mmHg 65%
19:00 +24°C° 0 mm 1 m/S 678 mmHg 73%
20:00 +22°C° 0 mm 1 m/S 678 mmHg 80%
21:00 +22°C° 0 mm 1 m/S 678 mmHg 81%
22:00 +21°C° 0 mm 1 m/S 678 mmHg 81%
23:00 +21°C° 0 mm 1 m/S 678 mmHg 81%

Morgen, 13 Juli, Montag

Zeit Temperatur Niederschläge Wind Luftdruck Luftfeuchtigkeit
00:00 +21°C° 0 mm 1 m/S 677 mmHg 80%
01:00 +20°C° 0 mm 1 m/S 677 mmHg 79%
02:00 +20°C° 0 mm 1 m/S 676 mmHg 79%
03:00 +20°C° 0 mm 1 m/S 677 mmHg 79%
04:00 +20°C° 0 mm 1 m/S 677 mmHg 79%
05:00 +20°C° 0 mm 1 m/S 677 mmHg 79%
06:00 +22°C° 0 mm 1 m/S 678 mmHg 71%
07:00 +23°C° 0 mm 0 m/S 678 mmHg 64%
08:00 +25°C° 0 mm 0 m/S 679 mmHg 56%
09:00 +29°C° 0 mm 1 m/S 679 mmHg 52%
10:00 +30°C° 0 mm 1 m/S 679 mmHg 48%
11:00 +31°C° 0 mm 2 m/S 679 mmHg 44%
12:00 +31°C° 0 mm 2 m/S 678 mmHg 42%
13:00 +33°C° 0 mm 3 m/S 678 mmHg 41%
14:00 +33°C° 0 mm 3 m/S 677 mmHg 40%
15:00 +31°C° 0 mm 2 m/S 677 mmHg 44%
16:00 +30°C° 0 mm 2 m/S 677 mmHg 49%
17:00 +29°C° 0 mm 2 m/S 677 mmHg 53%
18:00 +27°C° 0 mm 1 m/S 677 mmHg 61%
19:00 +24°C° 0 mm 1 m/S 677 mmHg 69%
20:00 +22°C° 0 mm 1 m/S 677 mmHg 77%
21:00 +22°C° 0 mm 1 m/S 677 mmHg 78%
22:00 +21°C° 0 mm 1 m/S 677 mmHg 78%
23:00 +21°C° 0 mm 1 m/S 677 mmHg 78%

übermorgen, 14 Juli, Dienstag

Zeit Temperatur Niederschläge Wind Luftdruck Luftfeuchtigkeit
00:00 +21°C° 0 mm 1 m/S 677 mmHg 78%
01:00 +21°C° 0 mm 1 m/S 677 mmHg 77%
02:00 +20°C° 0 mm 1 m/S 676 mmHg 77%
03:00 +20°C° 0 mm 1 m/S 676 mmHg 78%
04:00 +20°C° 0 mm 1 m/S 676 mmHg 78%
05:00 +20°C° 0 mm 1 m/S 676 mmHg 79%
06:00 +22°C° 0 mm 1 m/S 677 mmHg 72%
07:00 +25°C° 0 mm 1 m/S 678 mmHg 66%
08:00 +27°C° 0 mm 1 m/S 679 mmHg 59%
09:00 +28°C° 0 mm 1 m/S 679 mmHg 56%
10:00 +29°C° 0 mm 2 m/S 678 mmHg 53%
11:00 +30°C° 0 mm 2 m/S 678 mmHg 50%
12:00 +30°C° 0 mm 2 m/S 678 mmHg 50%
13:00 +31°C° 0 mm 2 m/S 678 mmHg 49%
14:00 +31°C° 0 mm 2 m/S 677 mmHg 48%
15:00 +30°C° 0 mm 2 m/S 677 mmHg 52%
16:00 +30°C° 0 mm 2 m/S 677 mmHg 56%
17:00 +29°C° 0 mm 2 m/S 676 mmHg 60%
18:00 +27°C° 0 mm 1 m/S 677 mmHg 69%
19:00 +25°C° 0 mm 1 m/S 677 mmHg 78%
20:00 +23°C° 0 mm 1 m/S 677 mmHg 87%
21:00 +22°C° 0 mm 1 m/S 677 mmHg 89%
22:00 +22°C° 0 mm 1 m/S 677 mmHg 91%
23:00 +19°C° 0 mm 0 m/S 677 mmHg 93%

15 Juli, Mittwoch

Zeit Temperatur Niederschläge Wind Luftdruck Luftfeuchtigkeit
00:00 +21°C° 0 mm 1 m/S 677 mmHg 93%
01:00 +21°C° 0 mm 1 m/S 676 mmHg 93%
02:00 +21°C° 0 mm 1 m/S 676 mmHg 93%
03:00 +21°C° 0 mm 1 m/S 676 mmHg 93%
04:00 +21°C° 0 mm 1 m/S 676 mmHg 93%
05:00 +20°C° 0 mm 1 m/S 676 mmHg 92%
06:00 +22°C° 0 mm 1 m/S 677 mmHg 86%
07:00 +24°C° 0 mm 1 m/S 677 mmHg 79%
08:00 +26°C° 0 mm 1 m/S 678 mmHg 73%
09:00 +26°C° 0.1 mm 1 m/S 678 mmHg 70%
10:00 +27°C° 0.1 mm 2 m/S 678 mmHg 67%
11:00 +28°C° 0.1 mm 2 m/S 678 mmHg 64%
12:00 +28°C° 0.2 mm 2 m/S 678 mmHg 64%
13:00 +28°C° 0.2 mm 2 m/S 677 mmHg 64%
14:00 +28°C° 0.2 mm 2 m/S 677 mmHg 64%
15:00 +28°C° 0.6 mm 2 m/S 677 mmHg 68%
16:00 +27°C° 0.6 mm 2 m/S 676 mmHg 72%
17:00 +26°C° 0.6 mm 1 m/S 676 mmHg 76%
18:00 +25°C° 0.1 mm 1 m/S 677 mmHg 81%
19:00 +23°C° 0.1 mm 1 m/S 677 mmHg 87%
20:00 +22°C° 0.1 mm 1 m/S 677 mmHg 92%
21:00 +22°C° 0.1 mm 1 m/S 677 mmHg 93%
22:00 +19°C° 0.1 mm 0 m/S 677 mmHg 94%
23:00 +19°C° 0.1 mm 0 m/S 677 mmHg 95%

16 Juli, Donnerstag

Zeit Temperatur Niederschläge Wind Luftdruck Luftfeuchtigkeit
00:00 +19°C° 0 mm 0 m/S 677 mmHg 96%
01:00 +19°C° 0 mm 0 m/S 677 mmHg 96%
02:00 +19°C° 0 mm 0 m/S 677 mmHg 96%
03:00 +18°C° 0 mm 0 m/S 677 mmHg 96%
04:00 +18°C° 0 mm 0 m/S 677 mmHg 96%
05:00 +18°C° 0 mm 0 m/S 677 mmHg 96%
06:00 +19°C° 0.1 mm 0 m/S 678 mmHg 92%
07:00 +22°C° 0.1 mm 1 m/S 678 mmHg 89%
08:00 +24°C° 0.1 mm 1 m/S 679 mmHg 85%
09:00 +26°C° 0.1 mm 1 m/S 679 mmHg 76%
10:00 +27°C° 0.1 mm 1 m/S 679 mmHg 67%
11:00 +29°C° 0.1 mm 2 m/S 679 mmHg 58%
12:00 +29°C° 0.1 mm 2 m/S 679 mmHg 58%
13:00 +30°C° 0.1 mm 2 m/S 679 mmHg 58%
14:00 +30°C° 0.1 mm 3 m/S 678 mmHg 58%
15:00 +29°C° 0.7 mm 2 m/S 678 mmHg 65%
16:00 +27°C° 0.7 mm 2 m/S 678 mmHg 72%
17:00 +26°C° 0.7 mm 1 m/S 677 mmHg 80%
18:00 +25°C° 0.4 mm 1 m/S 678 mmHg 84%
19:00 +23°C° 0.4 mm 1 m/S 678 mmHg 88%
20:00 +20°C° 0.4 mm 0 m/S 678 mmHg 93%
21:00 +19°C° 0 mm 0 m/S 678 mmHg 94%
22:00 +19°C° 0 mm 0 m/S 679 mmHg 95%
23:00 +21°C° 0 mm 1 m/S 679 mmHg 96%

17 Juli, Freitag

Zeit Temperatur Niederschläge Wind Luftdruck Luftfeuchtigkeit
00:00 +19°C° 0.1 mm 0 m/S 678 mmHg 96%
01:00 +18°C° 0.1 mm 0 m/S 678 mmHg 96%
02:00 +18°C° 0.1 mm 0 m/S 678 mmHg 97%
03:00 +18°C° 0 mm 0 m/S 678 mmHg 96%
04:00 +18°C° 0 mm 0 m/S 678 mmHg 96%
05:00 +18°C° 0 mm 0 m/S 678 mmHg 96%
06:00 +19°C° 0.1 mm 0 m/S 679 mmHg 91%
07:00 +23°C° 0.1 mm 1 m/S 679 mmHg 87%
08:00 +24°C° 0.1 mm 1 m/S 680 mmHg 82%
09:00 +26°C° 0.1 mm 1 m/S 680 mmHg 74%
10:00 +27°C° 0.1 mm 2 m/S 680 mmHg 66%
11:00 +29°C° 0.1 mm 2 m/S 680 mmHg 58%
12:00 +28°C° 0.6 mm 2 m/S 679 mmHg 62%
13:00 +28°C° 0.6 mm 2 m/S 679 mmHg 66%
14:00 +28°C° 0.6 mm 2 m/S 678 mmHg 71%
15:00 +27°C° 0.8 mm 2 m/S 678 mmHg 74%
16:00 +26°C° 0.8 mm 1 m/S 677 mmHg 78%
17:00 +25°C° 0.8 mm 1 m/S 677 mmHg 82%
18:00 +23°C° 1.9 mm 1 m/S 677 mmHg 87%
19:00 +22°C° 1.9 mm 1 m/S 678 mmHg 91%
20:00 +21°C° 1.9 mm 1 m/S 678 mmHg 95%
21:00 +20°C° 0.6 mm 1 m/S 678 mmHg 95%
22:00 +20°C° 0.6 mm 1 m/S 678 mmHg 95%
23:00 +18°C° 0.6 mm 0 m/S 678 mmHg 96%
Mehr zeigen